Location: Noordwijk
(52.2400°N, 4.4500°E)
Time: 00:22:25
(UTC+00:00)

CAS-4A - Pass Details

Date: 06 December 2022
Orbit: 514 x 531 km, 43.0° (Epoch: 05 February)

Event Time Altitude Azimuth Distance (km) Brightness Sun altitude
Exits shadow 05:33:51 - 212° (SSW) 2,403 ? -17.5°
Reaches altitude 10° 05:36:08 10° 192° (SSW) 1,772 ? -17.2°
Maximum altitude 05:38:21 14° 159° (SSE) 1,517 ? -16.8°
Drops below altitude 10° 05:40:35 10° 125° (SE) 1,781 ? -16.5°
Sets 05:43:40 0° 101° (E) 2,677 ? -16.0°
